Weather Roundup
Issued by NWS Chicago, IL

Home | Current Version | Previous Version | Text Only | Print | Product List | Glossary Off
Versions: 1 2 3 4 5 6 7 8 9 10 11 12 13 14 15 16 17 18 19 20 21 22 23 24 25 26 27 28 29 30 31 32 33 34 35 36 37 38 39 40 41 42 43 44 45 46 47 48 49 50

000
NZUS59 KLOT 021410
HRRLOT

CHICAGO AREA WEATHER ROUNDUP
NATIONAL WEATHER SERVICE CHICAGO/ROMEOVILLE IL
900 AM CDT TUE SEP 02 2014

NOTE: "FAIR" INDICATES FEW OR NO CLOUDS BELOW 12,000 FEET WITH NO
SIGNIFICANT WEATHER AND/OR OBSTRUCTIONS TO VISIBILITY.

* THESE STATIONS ARE NOT UNDER NWS QUALITY CONTROL. THEY ALSO MAY NOT
  REPORT WEATHER SUCH AS PRECIPITATION OR FOG.

ILZ005-006-012>014-019>023-021500-
NORTHEAST ILLINOIS

CITY           SKY/WX    TMP DP  RH WIND       PRES   REMARKS
OHARE          PTSUNNY   72  63  73 CALM      29.89R
MIDWAY         PTSUNNY   75  66  73 NW3       29.88S
AURORA         MOSUNNY   70  65  84 CALM      29.90S
LANSING*         N/A    N/A N/A N/A MISG        N/A
JOLIET*        PTSUNNY   71  65  82 CALM      29.91S
WAUKEGAN       MOSUNNY   72  64  76 NW3       29.89R
DUPAGE AIRPORT MOSUNNY   72  65  78 CALM      29.89S
WHEELING       MOSUNNY   74  65  73 N3        29.90S
KANKAKEE*      CLOUDY    67  66  94 CALM      29.92S
MORRIS*        PTSUNNY   72  69  90 CALM      29.90S
LEWIS AIRPORT* PTSUNNY   71  68  91 CALM      29.90R
NORTHERLY IS     N/A     72  64  76 NE2         N/A
$$

WIZ051-052-058>065-066-070>072-021500-
SOUTHEAST WISCONSIN

CITY           SKY/WX    TMP DP  RH WIND       PRES   REMARKS
MILWAUKEE      MOSUNNY   73  61  65 CALM      29.88S
KENOSHA*       MOSUNNY   70  64  81 CALM      29.90R
RACINE*        MOSUNNY   71  64  78 NW3       29.90R
BURLINGTON     SUNNY     64  64 100 CALM      29.90R
WAUKESHA       MOSUNNY   66  63  88 W7        29.90S
WEST BEND      MOSUNNY   68  59  73 W5        29.89S
$$

INZ001>003-010>013-019-020-021500-
NORTHWEST INDIANA

CITY           SKY/WX    TMP DP  RH WIND       PRES   REMARKS
GARY*          PTSUNNY   73  68  83 SW5       29.90
MICHIGAN CITY* NOT AVBL
RENSSELAER*    NOT AVBL
VALPARAISO     CLOUDY    70  66  87 SW9       29.91R
$$

LMZ740>746-021500-
SOUTHERN LAKE MICHIGAN

STATION/POSITION TIME  SKY/WX   TEMP WIND        PRES    VSBY
                                AIR  DIR/SP/G
                 (UTC)          (F)  (DEG/KT/KT) (MB)    (MI)
HARRISON CRIB    1400            70  320/  5/  6   N/A
BURNHAM HARBOR   1400            72   30/  5       N/A
CALUMET HARBOR   1400            72  180/  4/  4 1011.1R
BURNS HARBOR     NOT AVBL
MICHIGAN CITY    1400            70  220/  7/  9   N/A
$$

ABBREVIATIONS USED IN REMARKS
   TC - TEMPERATURE IN CELSIUS
  WCI - WIND CHILL INDEX
   HX - HEAT INDEX
  VSB - VISIBILITY
$$


USA.gov is the U.S. government's official web portal to all federal, state and local government web resources and services.